#timestamp,LO_Frequency,Hit,StdDev 
1609941615.5,286046999.6,N
1609941635.3,286046998.8,N
1609941655.2,286047000.9,N
1609941675.9,286046998.2,N
1609941695.7,286046999.8,N
1609941715.6,286046998.7,N
1609941735.4,286046998.4,N
1609941755.2,286047000.7,N
1609941775.1,286047000.3,N
1609941776.0,286047000.3,N
1609941795.8,286046999.7,N
1609941815.7,286047000.0,N
1609941835.5,286047000.1,N
1609941855.3,286047002.7,N
1609941875.2,286047002.6,N
1609941895.0,286047002.5,N
1609941895.9,286047002.5,N
1609941915.8,286047001.6,N
1609941935.6,286047002.1,N
1609941955.4,286046999.8,N
1609941975.3,286046998.6,N
1609941995.1,286046998.7,N
1609942015.8,286047000.9,N
1609942035.7,286047001.2,N
1609942055.5,286047002.8,N
1609942075.4,286047000.2,N
1609942095.2,286047002.4,N
1609942115.0,286047000.6,N
1609942115.9,286047000.6,N
1609942135.8,286046998.6,N
1609942155.6,286046998.6,N
1609942175.5,286046997.1,N
1609942195.3,286046996.7,N
1609942215.1,286046999.3,N
1609942235.9,286046999.4,N
1609942255.7,286047000.8,N
1609942275.5,286046998.1,N
1609942295.4,286047000.4,N
1609942315.2,286047000.2,N
1609942335.1,286047000.4,N
1609942336.0,286047000.4,N
1609942355.8,286047000.5,N
1609942375.6,286047000.6,N
1609942395.5,286047000.5,N
1609942415.3,286047000.7,N
1609942435.1,286047001.1,N
1609942455.9,286047000.7,N
1609942475.7,286047001.1,N
1609942495.6,286047001.0,N
1609942515.4,286046998.2,N
1609942535.2,286046998.6,N
1609942555.1,286047000.4,N
1609942556.0,286047000.4,N
1609942575.8,286046998.1,N
1609942595.7,286047001.0,N
1609942615.5,286047000.0,N
1609942635.3,286047001.0,N
1609942655.2,286046999.7,N
1609942675.0,286047001.3,N
1609942675.9,286047001.3,N
1609942695.7,286047002.1,N
1609942715.6,286047002.6,N
1609942735.4,286047001.8,N
1609942755.3,286047001.7,N
1609942775.1,286047004.2,Y
1609942795.8,286047004.3,P
1609942815.7,286047004.6,N
1609942835.5,286047003.1,N
1609942855.4,286047003.4,N
1609942875.2,286047004.3,N
1609942895.0,286047001.7,N
1609942895.9,286047001.7,N
1609942915.8,286047002.8,N
1609942935.6,286047002.8,N
1609942955.4,286047001.6,N
1609942975.3,286047002.6,N
1609942995.1,286047001.0,N
1609943015.9,286047000.9,N
1609943035.7,286047000.2,N
1609943055.5,286047000.1,N
1609943075.4,286047002.7,N
1609943095.2,286047004.0,N
1609943115.0,286047004.0,N
1609943116.0,286047004.0,N
1609943135.8,286047003.9,N
1609943155.6,286047007.6,Y
1609943175.5,286047002.7,P
1609943195.3,286047001.6,P
1609943215.1,286047000.1,N
1609943235.9,286046998.2,N
1609943255.7,286047001.0,N
1609943275.6,286047000.6,N
1609943295.4,286047001.1,N
1609943315.2,286047001.1,N
1609943335.1,286047000.7,N
1609943336.0,286047000.7,N
1609943355.8,286047000.0,N
1609943375.6,286047001.1,N
1609943395.5,286046996.9,N
1609943415.3,286046998.0,N
1609943435.2,286046996.5,N
1609943455.9,286046999.7,N
1609943475.7,286047001.1,N
1609943495.6,286046999.7,N
1609943515.4,286047000.8,N
1609943535.2,286047000.7,N
1609943555.1,286046998.6,N
1609943556.0,286046998.6,N
1609943575.8,286046998.5,N
1609943595.7,286046998.7,N
1609943615.5,286047001.0,N
1609943635.3,286047001.1,N
1609943655.2,286046999.2,N
1609943675.0,286046996.6,N
1609943675.9,286046996.6,N
1609943695.8,286046994.9,Y
1609943715.6,286046997.3,P
1609943735.4,286046999.4,N
1609943755.3,286046999.3,N
1609943775.1,286047000.8,N
1609943795.9,286047001.0,N
1609943815.7,286046998.7,N
1609943835.5,286046996.5,Y
1609943855.4,286046998.3,P
1609943875.2,286046999.1,N
1609943895.0,286046996.9,P
1609943896.0,286046996.9,Y
1609943915.8,286046999.5,P
1609943935.6,286046998.2,P
1609943955.5,286047000.4,N
1609943975.3,286046998.9,N
1609943995.1,286046998.2,N
1609944015.9,286046999.4,N
1609944035.7,286046998.2,N
1609944055.6,286046998.7,N
1609944075.4,286046998.3,N
1609944095.2,286046998.8,N
1609944115.1,286047001.2,N
1609944116.0,286047001.2,N
1609944135.8,286047000.4,N
1609944155.7,286046997.0,N
1609944175.5,286046999.2,N
1609944195.3,286046998.7,N
1609944215.2,286047000.4,N
1609944235.0,286046999.7,N
1609944235.9,286046999.7,N
1609944255.7,286047004.2,Y
1609944275.6,286047005.4,P
1609944295.4,286047003.5,N
1609944315.3,286047003.7,N
1609944335.1,286047001.6,N
1609944336.0,286047001.6,N
1609944355.8,286047001.9,N
1609944375.7,286047002.5,N
1609944425.5,286046999.9,E
1609944435.4,286047000.0,N
1609944455.3,286047002.2,P
1609944475.1,286047002.1,N
1609944495.9,286047001.7,N
1609944515.7,286047000.5,N
1609944535.5,286047000.3,N
1609944555.4,286046999.5,N
1609944575.2,286046999.4,N
1609944595.1,286046999.3,N
1609944596.0,286046999.3,N
1609944615.8,286046998.3,N
1609944635.6,286046996.8,N
1609944655.5,286046997.1,N
1609944675.3,286046998.9,N
1609944695.1,286047001.2,N
1609944715.9,286046999.1,N
1609944735.7,286047001.2,N
1609944755.6,286046998.8,N
1609944775.4,286047001.2,N
1609944795.2,286046999.8,N
1609944815.1,286047002.0,N
1609944816.0,286047002.0,N
1609944835.8,286047002.3,N
1609944855.7,286047000.2,N
1609944875.5,286047000.9,N
1609944895.3,286047000.8,N
1609944915.2,286047000.8,N
1609944935.9,286047000.8,N
1609944955.7,286047000.2,N
1609944975.6,286047000.9,N
1609944995.4,286046998.8,N
1609945015.3,286047000.7,N
1609945035.1,286047002.3,N
1609945036.0,286047002.3,N
1609945055.8,286047001.9,N
1609945075.7,286047001.5,N
1609945095.5,286047001.8,N
1609945115.3,286047001.4,N
1609945135.2,286047004.2,N
1609945155.0,286047001.7,N
1609945155.9,286047001.7,N
1609945175.8,286047000.5,N
1609945195.6,286047000.0,N
